Tracking 30746 objects as of 19-Jun-2025
HD Live streaming from Space Station
objects crossing your sky now

STARLINK-32573

Track STARLINK-32573 now!
10-day predictions
STARLINK-32573 is classified as:


NORAD ID: 61725
Int'l Code: 2024-196U
Perigee: 482.0 km
Apogee: 483.1 km
Inclination: 53.2 °
Period: 94.1 minutes
Semi major axis: 6853 km
RCS: Unknown
Launch date: October 30, 2024
Source: United States (US)
Launch site: AIR FORCE EASTERN TEST RANGE (AFETR)
Your satellite tracking list
Your tracking list is empty




NASA's NSSDC Master Catalog

Two Line Element Set (TLE):
1 61725U 24196U   25170.20364098  .00010928  00000-0  38130-3 0  9998
2 61725  53.1595 245.3523 0000777  88.6989 271.4100 15.30135262 36848
Source of the keplerian elements: AFSPC